• In Hungary
  • List of Countries
  • For 7 days
  • Water Temperature
  • Satellite Maps
  • Weather Map
  • News
  • Weather Widgets
  • user-avatar
    Login

    Hourly Weather Milerzyska

    Today, 13 November, Tuesday

    Time Temperature Precipitation Wind Pressure Humidity
    00:00 +8°C° 0 mm 2 mps 721 mmHg 88%
    01:00 +8°C° 0 mm 2 mps 721 mmHg 88%
    02:00 +8°C° 0 mm 2 mps 721 mmHg 87%
    03:00 +8°C° 0 mm 2 mps 721 mmHg 86%
    04:00 +7°C° 0 mm 2 mps 721 mmHg 85%
    05:00 +7°C° 0 mm 2 mps 721 mmHg 85%
    06:00 +7°C° 0 mm 2 mps 721 mmHg 84%
    07:00 +7°C° 0 mm 2 mps 721 mmHg 84%
    08:00 +9°C° 0 mm 2 mps 721 mmHg 77%
    09:00 +12°C° 0 mm 2 mps 721 mmHg 71%
    10:00 +13°C° 0 mm 1 mps 721 mmHg 64%
    11:00 +14°C° 0 mm 2 mps 721 mmHg 62%
    12:00 +15°C° 0 mm 2 mps 721 mmHg 60%
    13:00 +16°C° 0 mm 2 mps 721 mmHg 57%
    14:00 +14°C° 0 mm 2 mps 721 mmHg 62%
    15:00 +13°C° 0 mm 2 mps 721 mmHg 68%
    16:00 +12°C° 0 mm 2 mps 721 mmHg 73%
    17:00 +11°C° 0 mm 3 mps 721 mmHg 75%
    18:00 +10°C° 0 mm 3 mps 721 mmHg 76%
    19:00 +10°C° 0 mm 3 mps 721 mmHg 78%
    20:00 +10°C° 0.2 mm 3 mps 722 mmHg 81%
    21:00 +9°C° 0.2 mm 3 mps 722 mmHg 83%
    22:00 +9°C° 0.2 mm 3 mps 722 mmHg 86%
    23:00 +9°C° 0.1 mm 3 mps 722 mmHg 87%

    Tomorrow, 14 November, Wednesday

    Time Temperature Precipitation Wind Pressure Humidity
    00:00 +8°C° 0.1 mm 3 mps 722 mmHg 88%
    01:00 +8°C° 0.1 mm 2 mps 723 mmHg 89%
    02:00 +7°C° 0 mm 2 mps 723 mmHg 89%
    03:00 +7°C° 0 mm 2 mps 723 mmHg 89%
    04:00 +7°C° 0 mm 2 mps 723 mmHg 89%
    05:00 +6°C° 0 mm 2 mps 723 mmHg 90%
    06:00 +6°C° 0 mm 2 mps 723 mmHg 90%
    07:00 +5°C° 0 mm 2 mps 723 mmHg 91%
    08:00 +6°C° 0 mm 2 mps 723 mmHg 86%
    09:00 +7°C° 0 mm 3 mps 724 mmHg 82%
    10:00 +7°C° 0 mm 3 mps 724 mmHg 77%
    11:00 +7°C° 0 mm 3 mps 724 mmHg 76%
    12:00 +7°C° 0 mm 3 mps 724 mmHg 75%
    13:00 +7°C° 0 mm 3 mps 723 mmHg 75%
    14:00 +7°C° 0 mm 3 mps 724 mmHg 76%
    15:00 +7°C° 0 mm 2 mps 724 mmHg 77%
    16:00 +6°C° 0 mm 2 mps 724 mmHg 79%
    17:00 +6°C° 0 mm 2 mps 724 mmHg 81%
    18:00 +6°C° 0 mm 2 mps 724 mmHg 83%
    19:00 +7°C° 0 mm 1 mps 724 mmHg 85%
    20:00 +6°C° 0 mm 1 mps 724 mmHg 87%
    21:00 +6°C° 0 mm 1 mps 724 mmHg 89%
    22:00 +5°C° 0 mm 1 mps 724 mmHg 91%
    23:00 +5°C° 0 mm 1 mps 724 mmHg 91%

    Day after tomorrow, 15 November, Thursday

    Time Temperature Precipitation Wind Pressure Humidity
    00:00 +5°C° 0 mm 1 mps 724 mmHg 91%
    01:00 +5°C° 0 mm 1 mps 724 mmHg 92%
    02:00 +5°C° 0 mm 1 mps 724 mmHg 92%
    03:00 +5°C° 0 mm 1 mps 724 mmHg 93%
    04:00 +4°C° 0 mm 1 mps 724 mmHg 93%
    05:00 +4°C° 0 mm 1 mps 724 mmHg 93%
    06:00 +4°C° 0 mm 1 mps 725 mmHg 94%
    07:00 +3°C° 0 mm 1 mps 725 mmHg 94%
    08:00 +4°C° 0 mm 1 mps 725 mmHg 90%
    09:00 +6°C° 0 mm 1 mps 725 mmHg 86%
    10:00 +7°C° 0 mm 1 mps 725 mmHg 81%
    11:00 +7°C° 0 mm 1 mps 725 mmHg 78%
    12:00 +8°C° 0 mm 1 mps 725 mmHg 75%
    13:00 +8°C° 0 mm 1 mps 725 mmHg 72%
    14:00 +6°C° 0 mm 2 mps 725 mmHg 76%
    15:00 +6°C° 0 mm 2 mps 725 mmHg 81%
    16:00 +5°C° 0 mm 2 mps 725 mmHg 85%
    17:00 +4°C° 0 mm 2 mps 725 mmHg 86%
    18:00 +4°C° 0 mm 2 mps 725 mmHg 88%
    19:00 +3°C° 0 mm 2 mps 725 mmHg 90%
    20:00 +4°C° 0 mm 1 mps 725 mmHg 90%
    21:00 +4°C° 0 mm 1 mps 726 mmHg 90%
    22:00 +4°C° 0 mm 1 mps 726 mmHg 90%
    23:00 +3°C° 0 mm 1 mps 726 mmHg 91%

    16 November, Friday

    Time Temperature Precipitation Wind Pressure Humidity
    00:00 +3°C° 0 mm 1 mps 726 mmHg 92%
    01:00 +3°C° 0 mm 1 mps 726 mmHg 93%
    02:00 +3°C° 0 mm 1 mps 726 mmHg 93%
    03:00 +3°C° 0 mm 1 mps 726 mmHg 94%
    04:00 +1°C° 0 mm 2 mps 726 mmHg 94%
    05:00 +1°C° 0 mm 2 mps 726 mmHg 94%
    06:00 +1°C° 0 mm 2 mps 726 mmHg 94%
    07:00 +1°C° 0 mm 2 mps 726 mmHg 94%
    08:00 +2°C° 0 mm 2 mps 727 mmHg 88%
    09:00 +2°C° 0 mm 3 mps 727 mmHg 82%
    10:00 +3°C° 0 mm 3 mps 727 mmHg 76%
    11:00 +4°C° 0 mm 3 mps 727 mmHg 72%
    12:00 +5°C° 0 mm 3 mps 727 mmHg 68%
    13:00 +5°C° 0 mm 3 mps 727 mmHg 65%
    14:00 +4°C° 0 mm 3 mps 727 mmHg 70%
    15:00 +3°C° 0 mm 3 mps 727 mmHg 75%
    16:00 +2°C° 0 mm 3 mps 727 mmHg 81%
    17:00 +1°C° 0 mm 3 mps 727 mmHg 83%
    18:00 +1°C° 0 mm 3 mps 727 mmHg 85%
    19:00 0°C° 0 mm 3 mps 727 mmHg 87%
    20:00 +1°C° 0 mm 2 mps 728 mmHg 88%
    21:00 +1°C° 0 mm 2 mps 728 mmHg 89%
    22:00 -1°C° 0 mm 2 mps 728 mmHg 90%
    23:00 -1°C° 0 mm 2 mps 728 mmHg 90%

    17 November, Saturday

    Time Temperature Precipitation Wind Pressure Humidity
    00:00 -1°C° 0 mm 2 mps 728 mmHg 89%
    01:00 -1°C° 0 mm 2 mps 728 mmHg 89%
    02:00 -1°C° 0 mm 2 mps 728 mmHg 88%
    03:00 -2°C° 0 mm 2 mps 728 mmHg 87%
    04:00 -2°C° 0 mm 2 mps 728 mmHg 86%
    05:00 -2°C° 0 mm 2 mps 728 mmHg 84%
    06:00 -2°C° 0 mm 2 mps 728 mmHg 83%
    07:00 -2°C° 0 mm 2 mps 728 mmHg 82%
    08:00 -1°C° 0 mm 2 mps 728 mmHg 74%
    09:00 +2°C° 0 mm 2 mps 728 mmHg 65%
    10:00 +2°C° 0 mm 3 mps 728 mmHg 57%
    11:00 +3°C° 0 mm 3 mps 728 mmHg 54%
    12:00 +4°C° 0 mm 3 mps 728 mmHg 51%
    13:00 +5°C° 0 mm 3 mps 728 mmHg 47%
    14:00 +4°C° 0 mm 3 mps 727 mmHg 53%
    15:00 +2°C° 0 mm 3 mps 727 mmHg 59%
    16:00 +1°C° 0 mm 3 mps 727 mmHg 65%
    17:00 0°C° 0 mm 3 mps 727 mmHg 68%
    18:00 -1°C° 0 mm 2 mps 727 mmHg 72%
    19:00 -2°C° 0 mm 2 mps 727 mmHg 75%
    20:00 -2°C° 0 mm 2 mps 727 mmHg 74%
    21:00 -2°C° 0 mm 2 mps 727 mmHg 74%
    22:00 -2°C° 0 mm 2 mps 727 mmHg 74%
    23:00 -3°C° 0 mm 2 mps 727 mmHg 72%

    18 November, Sunday

    Time Temperature Precipitation Wind Pressure Humidity
    00:00 -3°C° 0 mm 2 mps 726 mmHg 70%
    01:00 -1°C° 0 mm 1 mps 726 mmHg 68%
    02:00 -1°C° 0 mm 1 mps 726 mmHg 66%
    03:00 -1°C° 0 mm 1 mps 726 mmHg 64%
    04:00 -1°C° 0 mm 1 mps 725 mmHg 63%
    05:00 -1°C° 0 mm 1 mps 725 mmHg 63%
    06:00 -1°C° 0 mm 1 mps 725 mmHg 63%
    07:00 -1°C° 0 mm 1 mps 725 mmHg 63%
    08:00 0°C° 0 mm 1 mps 725 mmHg 57%
    09:00 +2°C° 0 mm 1 mps 725 mmHg 52%
    10:00 +4°C° 0 mm 1 mps 725 mmHg 46%
    11:00 +4°C° 0 mm 1 mps 724 mmHg 44%
    12:00 +5°C° 0 mm 1 mps 724 mmHg 43%
    13:00 +6°C° 0 mm 1 mps 723 mmHg 41%
    14:00 +5°C° 0 mm 1 mps 722 mmHg 46%
    15:00 +3°C° 0 mm 1 mps 722 mmHg 52%
    16:00 +2°C° 0 mm 1 mps 721 mmHg 57%
    17:00 +2°C° 0 mm 1 mps 720 mmHg 60%
    18:00 +1°C° 0 mm 1 mps 720 mmHg 63%
    19:00 -1°C° 0 mm 2 mps 719 mmHg 66%
    20:00 -2°C° 0 mm 2 mps 719 mmHg 70%
    21:00 -2°C° 0 mm 2 mps 718 mmHg 74%
    22:00 -2°C° 0 mm 2 mps 718 mmHg 78%
    23:00 -1°C° 0.1 mm 2 mps 718 mmHg 81%
    Show more